SES-9

Last updated on Sun Dec 14 2025 00:02:51 GMT+0000 (Coordinated Universal Time)

1 41380U 16013A 25347.08255426 -.00000332 00000+0 00000+0 0 9997 2 41380 0.0126 327.6591 0000320 191.8953 60.4810 1.00270637 35576
UTC large
Height (km)
Speed (km/s)
/
Latitude / Longitude
Inclination (degrees)
Orbital Period (minutes)
Azimuth
Elevation
Range (km)
Doppler Factor

Next 0 passes for location: London (51.5072 / 0.1276)

Sorry there are no passes over London.